Tracking 29892 objects as of 21-Nov-2024
HD Live streaming from Space Station
objects crossing your sky now

CZ-6A DEB

Track CZ-6A DEB now!
10-day predictions


NORAD ID: 55543
Int'l Code: 2022-151YR
Perigee: 631.5 km
Apogee: 842.9 km
Inclination: 98.6 °
Period: 99.4 minutes
Semi major axis: 7108 km
RCS: Unknown
Launch date: November 11, 2022
Source: People's Republic of China (PRC)
Launch site: Taiyaun Space Center, China (TSC)

Note: This is SATELLITE DEBRIS
Your satellite tracking list
Your tracking list is empty




NASA's NSSDC Master Catalog

Two Line Element Set (TLE):
1 55543U 22151YR  24325.50434561  .00013346  00000-0  30887-2 0  9992
2 55543  98.5676 342.4857 0148680 264.7506  93.6706 14.48645902100909
Source of the keplerian elements: AFSPC